Tracking 31027 objects as of 19-Jul-2025
HD Live streaming from Space Station
objects crossing your sky now

STARLINK-30963

Track STARLINK-30963 now!
10-day predictions
STARLINK-30963 is classified as:


NORAD ID: 58444
Int'l Code: 2023-183H
Perigee: 565.1 km
Apogee: 567.3 km
Inclination: 43.0 °
Period: 95.8 minutes
Semi major axis: 6937 km
RCS: Unknown
Launch date: November 28, 2023
Source: United States (US)
Launch site: AIR FORCE EASTERN TEST RANGE (AFETR)
Your satellite tracking list
RESURS O1 DEB
Track 1 satellite(s)




NASA's NSSDC Master Catalog

Two Line Element Set (TLE):
1 58444U 23183H   25199.79472758 -.00000424  00000-0 -16346-4 0  9993
2 58444  43.0024 233.9594 0001583 281.4135  78.6529 15.02534072 91552
Source of the keplerian elements: AFSPC